| time (UTC) | temp C | wind direction | speed KPH | gust KPH | rain 1hr cm | rain 24hr cm | rain mn cm | humidity % | barometer mb |
| 20260507225958 | 25 | 271 | 0.0 | 0.0 | 0.00 | 0.00 | 0.00 | 25 | 1010.5 |
| 20260507224457 | 25 | 264 | 0.0 | 1.6 | 0.00 | 0.00 | 0.00 | 26 | 1010.7 |
| 20260507222956 | 25 | 155 | 0.0 | 1.6 | 0.00 | 0.00 | 0.00 | 27 | 1010.9 |
| 20260507221455 | 25 | 218 | 0.0 | 1.6 | 0.00 | 0.00 | 0.00 | 26 | 1010.9 |
| 20260507215955 | 25 | 218 | 0.0 | 0.0 | 0.00 | 0.00 | 0.00 | 26 | 1011.2 |
| 20260507214454 | 25 | 229 | 0.0 | 1.6 | 0.00 | 0.00 | 0.00 | 28 | 1011.4 |
| 20260507212953 | 25 | 221 | 0.0 | 1.6 | 0.00 | 0.00 | 0.00 | 27 | 1011.6 |
| 20260507211452 | 25 | 239 | 0.0 | 1.6 | 0.00 | 0.00 | 0.00 | 28 | 1011.9 |
| 20260507205951 | 24 | 235 | 0.0 | 12.9 | 0.00 | 0.00 | 0.00 | 30 | 1012.1 |
| 20260507204450 | 24 | 243 | 0.0 | 1.6 | 0.00 | 0.00 | 0.00 | 29 | 1012.4 |
| 20260507202949 | 23 | 267 | 0.0 | 3.2 | 0.00 | 0.00 | 0.00 | 34 | 1012.8 |
| 20260507201448 | 23 | 226 | 0.0 | 1.6 | 0.00 | 0.00 | 0.00 | 31 | 1013.1 |
| 20260507195947 | 23 | 259 | 0.0 | 1.6 | 0.00 | 0.00 | 0.00 | 30 | 1013.4 |
| 20260507194446 | 23 | 283 | 0.0 | 1.6 | 0.00 | 0.00 | 0.00 | 34 | 1013.8 |
| 20260507192945 | 22 | 122 | 4.8 | 6.4 | 0.00 | 0.00 | 0.00 | 36 | 1014.0 |
| 20260507191444 | 21 | 270 | 0.0 | 3.2 | 0.00 | 0.00 | 0.00 | 36 | 1014.4 |
| 20260507182941 | 21 | 231 | 0.0 | 1.6 | 0.00 | 0.00 | 0.00 | 38 | 1015.0 |
| 20260507181440 | 20 | 232 | 0.0 | 1.6 | 0.00 | 0.00 | 0.00 | 40 | 1015.3 |
| 20260507175939 | 20 | 269 | 0.0 | 1.6 | 0.00 | 0.00 | 0.00 | 39 | 1015.6 |
| 20260507174438 | 20 | 264 | 0.0 | 1.6 | 0.00 | 0.00 | 0.00 | 42 | 1015.9 |
| 20260507172937 | 18 | 212 | 0.0 | 1.6 | 0.00 | 0.00 | 0.00 | 45 | 1016.2 |
| 20260507171436 | 18 | 221 | 0.0 | 1.6 | 0.00 | 0.00 | 0.00 | 43 | 1016.6 |
| 20260507165935 | 18 | 266 | 0.0 | 3.2 | 0.00 | 0.00 | 0.00 | 46 | 1017.0 |
| 20260507164435 | 17 | 229 | 0.0 | 1.6 | 0.00 | 0.00 | 0.00 | 48 | 1017.2 |
| 20260507162934 | 17 | 250 | 0.0 | 1.6 | 0.00 | 0.00 | 0.00 | 52 | 1017.4 |
| 20260507161432 | 17 | 248 | 0.0 | 3.2 | 0.00 | 0.00 | 0.00 | 50 | 1017.5 |
| 20260507155932 | 16 | 264 | 0.0 | 3.2 | 0.00 | 0.00 | 0.00 | 55 | 1017.7 |
| 20260507154430 | 15 | 256 | 0.0 | 1.6 | 0.00 | 0.00 | 0.00 | 56 | 1017.7 |
| 20260507152929 | 15 | 262 | 0.0 | 1.6 | 0.00 | 0.00 | 0.00 | 59 | 1017.9 |
| 20260507151429 | 15 | 278 | 0.0 | 3.2 | 0.00 | 0.00 | 0.00 | 61 | 1018.1 |
| 20260507145928 | 14 | 232 | 0.0 | 1.6 | 0.00 | 0.00 | 0.00 | 62 | 1018.4 |
| 20260507144427 | 13 | 236 | 0.0 | 1.6 | 0.00 | 0.00 | 0.00 | 63 | 1018.3 |
| 20260507142926 | 13 | 221 | 0.0 | 1.6 | 0.00 | 0.00 | 0.00 | 69 | 1018.6 |
| 20260507141425 | 12 | 226 | 1.6 | 1.6 | 0.00 | 0.00 | 0.00 | 73 | 1018.8 |
| 20260507135924 | 11 | 217 | 0.0 | 0.0 | 0.00 | 0.00 | 0.00 | 77 | 1018.9 |
| 20260507134423 | 10 | 269 | 0.0 | 0.0 | 0.00 | 0.00 | 0.00 | 81 | 1019.1 |
| 20260507132922 | 10 | 248 | 0.0 | 0.0 | 0.00 | 0.00 | 0.00 | 84 | 1019.1 |
| 20260507125920 | 8 | 245 | 0.0 | 0.0 | 0.00 | 0.00 | 0.00 | 92 | 1019.3 |
| 20260507124419 | 7 | 228 | 0.0 | 0.0 | 0.00 | 0.00 | 0.00 | 93 | 1019.1 |
| 20260507122918 | 6 | 253 | 0.0 | 0.0 | 0.00 | 0.00 | 0.00 | 94 | 1019.1 |
| 20260507121417 | 6 | 245 | 0.0 | 0.0 | 0.00 | 0.00 | 0.00 | 94 | 1019.0 |
| 20260507115916 | 5 | 245 | 0.0 | 0.0 | 0.00 | 0.00 | 0.00 | 94 | 1019.0 |
| 20260507114415 | 5 | 206 | 0.0 | 0.0 | 0.00 | 0.00 | 0.00 | 93 | 1018.9 |
| 20260507112914 | 5 | 203 | 0.0 | 0.0 | 0.00 | 0.00 | 0.00 | 91 | 1018.9 |
| 20260507111413 | 5 | 203 | 0.0 | 0.0 | 0.00 | 0.00 | 0.00 | 92 | 1018.8 |
| 20260507104411 | 6 | 203 | 0.0 | 0.0 | 0.00 | 0.00 | 0.00 | 91 | 1018.7 |
| 20260507102910 | 6 | 240 | 0.0 | 0.0 | 0.00 | 0.00 | 0.00 | 91 | 1018.9 |
| 20260507101410 | 6 | 249 | 0.0 | 0.0 | 0.00 | 0.00 | 0.00 | 91 | 1019.1 |
| 20260507095908 | 6 | 232 | 0.0 | 0.0 | 0.00 | 0.00 | 0.00 | 92 | 1019.2 |
| 20260507094407 | 5 | 232 | 0.0 | 0.0 | 0.00 | 0.00 | 0.00 | 92 | 1019.4 |
| 20260507091405 | 6 | 232 | 0.0 | 0.0 | 0.00 | 0.00 | 0.00 | 87 | 1019.4 |
| 20260507085905 | 7 | 232 | 0.0 | 0.0 | 0.00 | 0.00 | 0.00 | 85 | 1019.4 |
| 20260507084404 | 7 | 232 | 0.0 | 0.0 | 0.00 | 0.00 | 0.00 | 85 | 1019.5 |
| 20260507081402 | 9 | 231 | 0.0 | 0.0 | 0.00 | 0.00 | 0.00 | 84 | 1019.6 |
| 20260507075901 | 10 | 222 | 0.0 | 0.0 | 0.00 | 0.00 | 0.00 | 85 | 1019.8 |
| 20260507074400 | 10 | 340 | 0.0 | 0.0 | 0.00 | 0.00 | 0.00 | 86 | 1019.8 |
| 20260507072859 | 9 | 16 | 0.0 | 0.0 | 0.00 | 0.00 | 0.00 | 86 | 1019.9 |
| 20260507071358 | 9 | 16 | 0.0 | 0.0 | 0.00 | 0.00 | 0.00 | 86 | 1020.0 |
| 20260507065857 | 8 | 16 | 0.0 | 0.0 | 0.00 | 0.00 | 0.00 | 86 | 1020.2 |
| 20260507064356 | 8 | 16 | 0.0 | 0.0 | 0.00 | 0.00 | 0.00 | 85 | 1020.2 |
| 20260507062855 | 8 | 16 | 0.0 | 0.0 | 0.00 | 0.00 | 0.00 | 84 | 1020.4 |
| 20260507061354 | 8 | 16 | 0.0 | 0.0 | 0.00 | 0.00 | 0.00 | 84 | 1020.2 |
| 20260507055853 | 9 | 16 | 0.0 | 0.0 | 0.00 | 0.00 | 0.00 | 83 | 1020.3 |
| 20260507052851 | 9 | 16 | 0.0 | 0.0 | 0.00 | 0.00 | 0.00 | 80 | 1020.4 |
| 20260507051350 | 9 | 16 | 0.0 | 0.0 | 0.00 | 0.00 | 0.00 | 81 | 1020.4 |
| 20260507044348 | 8 | 16 | 0.0 | 0.0 | 0.00 | 0.00 | 0.46 | 83 | 1020.2 |
| 20260507042847 | 8 | 16 | 0.0 | 0.0 | 0.00 | 0.00 | 0.46 | 83 | 1020.2 |
| 20260507041347 | 8 | 16 | 0.0 | 0.0 | 0.00 | 0.00 | 0.46 | 81 | 1020.0 |
| 20260507035845 | 9 | 16 | 0.0 | 0.0 | 0.00 | 0.00 | 0.46 | 82 | 1020.0 |
| 20260507034344 | 10 | 16 | 0.0 | 0.0 | 0.00 | 0.00 | 0.46 | 81 | 1020.0 |
| 20260507032843 | 10 | 16 | 0.0 | 0.0 | 0.00 | 0.00 | 0.46 | 80 | 1020.2 |
| 20260507031342 | 10 | 16 | 0.0 | 0.0 | 0.00 | 0.00 | 0.46 | 78 | 1020.1 |
| 20260507025841 | 10 | 16 | 0.0 | 0.0 | 0.00 | 0.00 | 0.46 | 78 | 1020.0 |
| 20260507024341 | 10 | 16 | 0.0 | 0.0 | 0.00 | 0.00 | 0.46 | 77 | 1019.9 |
| 20260507022840 | 11 | 16 | 0.0 | 0.0 | 0.00 | 0.00 | 0.46 | 75 | 1019.7 |
| 20260507015838 | 11 | 16 | 0.0 | 0.0 | 0.00 | 0.00 | 0.46 | 70 | 1019.6 |
| 20260507014337 | 11 | 16 | 0.0 | 0.0 | 0.00 | 0.00 | 0.46 | 66 | 1019.3 |
| 20260507012836 | 12 | 16 | 0.0 | 0.0 | 0.00 | 0.00 | 0.46 | 63 | 1019.1 |
| 20260507011335 | 12 | 16 | 0.0 | 0.0 | 0.00 | 0.00 | 0.46 | 62 | 1018.9 |
| 20260507005834 | 12 | 16 | 0.0 | 0.0 | 0.00 | 0.00 | 0.46 | 59 | 1018.8 |
| 20260507002832 | 13 | 40 | 0.0 | 1.6 | 0.00 | 0.00 | 0.46 | 57 | 1018.8 |
| 20260507001331 | 13 | 32 | 0.0 | 1.6 | 0.00 | 0.00 | 0.46 | 55 | 1018.8 |
| 20260506235830 | 13 | 85 | 0.0 | 1.6 | 0.00 | 0.00 | 0.46 | 55 | 1018.8 |
| 20260506234329 | 13 | 308 | 0.0 | 1.6 | 0.00 | 0.00 | 0.46 | 53 | 1018.9 |
| 20260506232828 | 14 | 6 | 1.6 | 1.6 | 0.00 | 0.00 | 0.46 | 53 | 1018.7 |
| 20260506231327 | 14 | 49 | 0.0 | 1.6 | 0.00 | 0.00 | 0.46 | 52 | 1018.6 |